DMSP 5D-2 F13 DEB, 40434

Orbit data source: Space-Track

DMSP 5D-2 F13 DEB, 40434 is space debris in SSO originally from a launch on Fri, 24 Mar 1995 UTC launched from the Air Force Western Test Range (AFWTR). Debris objects in space refer to the collection of defunct objects orbiting the Earth. Examples of debris include non-operational satellites, rocket bodies, and fragments generated from explosions, collisions, or faulty payload assembly.

Loading next visibility...
DMSP 5D-2 F13 DEB details
Identifier
40434, 1995-015AL
Orbit
SSO
Last TLE update13 hours ago
Origin
Flag of USUSAF SMC (US)
ManufacturerUnknown
MissionSpacecraft
Bus & MotorUnknown
MassUnknown
Launch date (UTC)
1995-03-24 (30 years ago)
Launch vehicleUnknown
Launch site
Air Force Western Test Range (AFWTR)
Object type
Payload
Rocket body
Debris
Shape & HBRUnknown
Radar Cross SectionSmall (<0.1 m²)

Expand to show TLE details & history

TLE from 13 hours ago
0 DMSP 5D-2 F13 DEB
1 40434U 95015AL  24360.89065336  .00007191  00000-0  34659-2 0  9997
2 40434  99.0665 330.1345 0176983 293.6510  64.6171 14.11142308506079
Epoch: 2024-12-25T21:22Z
Definitive object data (Epoch: 2024-12-25T21:22:32.45Z)
Latitude-0.00001°
Longitude-85.37861°
Altitude805.339 km
Speed7.478 km/s
True Right ascension22h 00m 32s
True Declination0° 00' 00"
Sunlit
Object was in daylight at TLE epoch
Visualization TLE readout
Latitude-16.51291°
Longitude92.46518°
Altitude872.224 km
Speed7.41 km/s
Apparent Right ascension10h 31m 05s
Apparent Declination-71° 04' 43"
Sunlit
Object is in daylight
Visualization observer readout
Local Sidereal Time09:35:12
Azimuth175.174° S
Elevation-21.447°
Doppler factor1
Orbital elements
Apogee altitude980.625 km
Perigee altitude724.679 km
Semi-major axis7,230.789 km
Eccentricity0.0176983
Inclination99.0665°
RAAN330.1345°
Arg. of periapsis293.651°
True anomaly66.46661°
Mean anomaly64.6171°
Eccentric anomaly65.54013°
Mean motion3.52992 °/min
BSTAR0.0034659
Orbital period101.99 mins
Loading maneuver chart data...

DMSP 5D-2 F13 DEB Visibility forecast

Observer location: undefined°, undefined

Span
Click to sort rows by Start time (UTC) header in descending order
Start Az.
Max El. time (UTC)
Max El. Az.
Max El.
End time (UTC)
End Az.
10 mins2024-12-26 11:34:02.954Z3.174° NNE2024-12-26 11:39:02.954Z296.01° NW39.466°2024-12-26 11:44:02.954Z216.189° SW
8 mins2024-12-26 21:21:02.954Z120.037° SE2024-12-26 21:24:02.954Z71.48° E30.905°2024-12-26 21:29:02.954Z4.456° NNE
8 mins2024-12-26 23:02:02.954Z217.881° SW2024-12-26 23:05:02.954Z265.659° W27.223°2024-12-26 23:10:02.954Z325.384° NNW
6 mins2024-12-27 09:45:02.954Z61.554° ENE2024-12-27 09:48:02.954Z96.201° ESE17.303°2024-12-27 09:51:02.954Z128.519° SE
|